CW2674 Weather Reports


Display with metric or nautical units.
time (UTC)temp
F
wind
direction
speed
MPH
gust
MPH
rain 1hr
in
rain 24hr
in
rain mn
in
humidity
%
barometer
mb
20260831224403 92 61 2.0 7.0 0.00 0.10 0.00 43 1012.5
20260831223403 92 36 7.0 13.0 0.00 0.24 0.00 43 1012.6
20260831221404 92 125 4.0 14.0 0.00 0.24 0.00 41 1013.1
20260831220403 93 131 6.0 13.0 0.00 0.10 0.00 45 1013.1
20260831213403 93 125 3.0 12.0 0.00 0.10 0.00 43 1013.9
20260831211406 93 128 7.0 9.0 0.00 0.24 0.00 46 1014.4
20260831211403 93 128 8.0 10.0 0.00 0.10 0.00 46 1014.4
20260831204406 92 140 7.0 9.0 0.00 0.24 0.00 48 1015.0
20260831204403 92 140 8.0 9.0 0.00 0.10 0.00 48 1015.0
20260831201404 90 143 7.0 12.0 0.00 0.24 0.00 50 1015.1
20260831194403 89 117 8.0 10.0 0.00 0.24 0.00 55 1015.4
20260831193404 87 153 6.0 9.0 0.00 0.24 0.00 58 1015.4
20260831191404 85 82 4.0 12.0 0.00 0.24 0.00 56 1015.6
20260831183403 85 67 5.0 8.0 0.00 0.10 0.00 58 1015.9
20260831181404 84 112 9.0 12.0 0.00 0.10 0.00 60 1016.0
20260831180405 84 81 8.0 9.0 0.00 0.24 0.00 62 1016.2
20260831180403 84 81 8.0 9.0 0.00 0.10 0.00 62 1016.2
20260831170404 82 135 6.0 8.0 0.00 0.24 0.00 67 1016.2
20260831164407 81 94 3.0 12.0 0.00 0.24 0.00 67 1016.3
20260831163405 81 106 6.0 12.0 0.00 0.24 0.00 66 1016.2
20260831161407 80 97 2.0 12.0 0.00 0.24 0.00 69 1016.1
20260831160406 80 126 10.0 15.0 0.00 0.10 0.00 70 1015.9
20260831154404 80 79 7.0 10.0 0.00 0.10 0.00 73 1015.8
20260831153407 80 86 6.0 12.0 0.00 0.24 0.00 73 1015.6
20260831151406 80 77 6.0 10.0 0.00 0.24 0.00 72 1015.4
20260831144406 80 103 6.0 7.0 0.00 0.24 0.00 68 1015.0
20260831143405 80 99 6.0 12.0 0.00 0.24 0.00 68 1014.6
20260831143403 80 98 7.0 12.0 0.00 0.10 0.00 68 1014.6
20260831141404 80 107 7.0 12.0 0.00 0.24 0.00 67 1014.1
20260831140404 80 59 6.0 9.0 0.00 0.24 0.00 67 1013.7
20260831134406 79 95 2.0 7.0 0.00 0.24 0.00 70 1013.3
20260831133407 79 107 2.0 3.0 0.00 0.24 0.00 70 1012.9
20260831131404 79 126 0.0 1.0 0.00 0.24 0.00 70 1012.8
20260831130404 79 126 2.0 3.0 0.00 0.10 0.00 69 1012.6
20260831124406 79 126 0.0 1.0 0.00 0.10 0.00 69 1012.1
20260831123406 79 126 0.0 2.0 0.00 0.10 0.00 69 1012.1
20260831120406 78 126 1.0 3.0 0.07 0.10 0.00 69 1011.9
20260831114407 78 53 2.0 3.0 0.00 0.24 0.00 69 1011.8
20260831111406 78 0 0.0 0.0 0.00 0.24 0.00 68 1011.1
20260831071404 78 347 10.0 18.0 0.00 0.24 0.00 70 1011.2
20260831070404 77 351 13.0 20.0 0.01 0.24 0.00 70 1011.5
20260831064405 77 16 11.0 16.0 0.08 0.24 0.24 71 1011.6
20260831063407 77 337 10.0 22.0 0.14 0.24 0.24 72 1011.6
20260831061404 77 326 8.0 20.0 0.14 0.24 0.24 73 1011.8
20260831054407 83 350 5.0 12.0 0.13 0.16 0.16 63 1012.4
20260831044406 86 134 13.0 15.0 0.10 0.10 0.10 62 1010.8
20260831043404 94 214 15.0 20.0 0.03 0.03 0.03 50 1010.2
20260831041407 99 213 7.0 17.0 0.00 0.00 0.00 34 1009.0
20260831040406 99 227 5.0 6.0 0.00 0.00 0.00 32 1008.4
20260831034403 100 228 1.0 5.0 0.00 0.00 0.00 31 1008.2
20260831030404 100 229 2.0 5.0 0.00 0.00 0.00 30 1008.2
20260831024405 101 228 2.0 5.0 0.00 0.00 0.00 30 1007.7
20260831023404 101 223 2.0 5.0 0.00 0.00 0.00 30 1007.6
20260831020404 101 214 0.0 7.0 0.00 0.00 0.00 30 1007.3
20260831011403 103 238 3.0 5.0 0.00 0.00 0.00 29 1006.9
20260831010404 104 252 3.0 9.0 0.00 0.00 0.00 29 1007.0
20260831004404 104 266 3.0 10.0 0.00 0.00 0.00 28 1007.0
20260831001404 106 274 3.0 10.0 0.00 0.00 0.00 27 1007.1
20260831000403 106 236 3.0 10.0 0.00 0.00 0.00 27 1007.3
20260830234407 105 277 4.0 10.0 0.00 0.00 0.00 28 1007.6
20260830233407 107 287 7.0 10.0 0.00 0.00 0.00 26 1007.5
20260830230404 106 221 4.0 12.0 0.00 0.00 0.00 28 1007.8